Location: *
(17.0639°S, 43.3100°W)
Time: 13:59:36
(UTC+00:00)

Daily predictions for brighter satellites

Satellite Brightness Start Highest point End
(mag) Time Altitude Azimuth Time Altitude Azimuth Time Altitude Azimuth
ADEOS Rocket 3.3 21:01:48 10° N 21:07:15 66° WNW 21:12:47 10° SSW
USA 229 DEB 4.0 21:00:04 10° NNW 21:07:41 68° ENE 21:15:13 10° SSE
USA 229 4.0 21:00:11 10° NNW 21:07:48 67° ENE 21:15:20 10° SSE
SWIFT 2.5 21:04:50 10° W 21:09:02 74° NNW 21:13:16 10° ENE
Cosmos 1271 Rocket 3.4 21:06:06 10° NNW 21:09:51 60° W 21:13:40 10° S
Cosmos 1140 Rocket 4.1 21:07:52 10° S 21:12:38 34° ESE 21:17:20 10° NE
Lacrosse 4 Rocket 4.4 21:12:21 10° W 21:14:39 14° WSW 21:16:58 10° SSW
Meteosat 1 Rocket2 4.4 21:11:20 10° SW 21:14:44 26° SSE 21:19:02 10° ESE
NOSS 3-1 (A) 4.5 21:08:16 10° N 21:16:54 54° ENE 21:25:11 10° SE
Delta 2 Rocket 3.9 21:10:29 10° WSW 21:16:57 89° SSE 21:22:58 10° ENE
Helios 1A Rocket 4.1 21:12:55 10° S 21:16:58 49° WSW 21:20:56 10° NNW
Cosmos 371 Rocket 3.3 21:13:40 10° N 21:18:31 77° ENE 21:23:25 10° SSE
Cosmos 1190 Rocket 4.2 21:14:08 10° S 21:19:16 49° ESE 21:24:24 10° NNE
SMAP 4.0 21:15:10 10° S 21:19:44 53° WSW 21:24:16 10° NNW
DELTA 2 R/B (1) 4.5 21:15:50 10° NNW 21:20:43 32° NE 21:25:23 11° ESE
CORIOLIS 4.4 21:15:34 10° S 21:20:59 78° WSW 21:26:24 10° NNW
Meteor 2-10 4.1 21:17:58 10° S 21:23:01 57° E 21:28:11 10° NNE
FengYun 1-2 T 4.4 21:17:56 10° SSE 21:23:24 54° ENE 21:28:45 10° N
Cosmos 614 Rocket 4.0 21:19:37 10° SSW 21:24:52 89° WNW 21:30:05 10° NNE
Intelsat 5-1 Rocket 1.8 21:24:02 10° NW 21:26:24 44° NNE 21:29:36 14° E
IRS-1C Rocket 4.3 21:22:11 10° S 21:27:30 79° WSW 21:32:46 10° NNW
KORONAS-FOTON 3.7 21:24:25 10° N 21:28:11 90° E 21:32:01 10° S
CZ-2D R/B 4.4 21:29:45 10° SE 21:32:50 22° E 21:35:51 10° NNE
Cosmos 1745 Rocket 3.9 21:27:27 10° N 21:33:33 73° E 21:39:42 10° S
Okean-O 2.5 21:32:39 10° SSE 21:37:07 74° ENE 21:41:31 10° N
STARLINK-80 4.1 21:36:17 10° SSW 21:39:47 33° SE 21:41:38 21° E
Cosmos 2228 3.2 21:40:09 10° S 21:44:15 46° E 21:48:20 10° NNE
Cosmos 1892 Rocket 3.8 21:40:43 10° N 21:45:08 73° W 21:49:34 10° S
Nadezhda 1 Rocket 4.4 21:40:11 10° SSE 21:46:10 42° E 21:52:09 10° NNE
Ariane H10+ 3.9 21:32:22 10° WNW 21:46:30 37° NNW 21:50:54 14° NE
Cosmos 407 Rocket 4.0 21:41:42 10° SSW 21:46:56 63° WNW 21:52:03 10° N
Cosmos 676 Rocket 4.1 21:42:49 10° S 21:48:03 54° ESE 21:53:15 10° NNE
Meteor 1-24 Rocket 3.5 21:44:40 10° N 21:49:58 79° E 21:55:27 10° S
Cosmos 332 Rocket 4.3 21:45:15 10° NNW 21:50:03 62° WSW 21:54:54 10° S
GPS 2-14 Rocket1 3.0 21:46:39 10° WSW 21:50:31 52° S 21:52:14 29° ESE
MINOTAUR IV R/B 4.5 21:46:58 10° SSW 21:51:30 84° ESE 21:55:58 10° NNE
Cosmos 1110 Rocket 3.9 21:49:50 10° N 21:54:59 85° ENE 22:00:11 10° SSE
Cosmos 1606 Rocket 3.4 21:51:21 10° S 21:55:45 76° E 22:00:06 10° N
H-II Stage 2 4.1 21:54:33 10° SW 21:57:47 27° SSE 22:01:33 20° ESE
Atlas Centaur 2 2.2 21:52:38 10° NW 21:59:07 64° NNE 22:01:35 32° E
CZ-2C R/B 3.3 22:00:56 30° E 22:01:39 31° ESE 22:06:24 10° SSE
Palapa 6 Rocket 4.0 21:55:41 10° WSW 22:03:11 85° SSE 22:06:25 32° ENE
DELTA-4 R/B 4.2 21:36:20 10° W 22:05:16 71° N 22:08:10 30° ENE
STARLINK-26 3.1 22:04:39 10° SSW 22:08:03 65° SE 22:08:03 65° SE
SL-24 R/B 3.8 22:09:42 56° E 22:09:43 56° ESE 22:13:43 10° S
Aurora 2 Rocket 3.0 22:08:10 10° WSW 22:11:00 30° S 22:11:14 30° S
Cosmos 1954 Rocket 4.0 22:05:45 10° SSW 22:11:06 86° W 22:16:23 10° NNE
Cosmos 1626 2.6 22:11:03 10° NNW 22:14:42 59° W 22:18:24 10° S
SL-14 R/B 3.9 22:12:57 10° NNW 22:16:46 54° W 22:20:35 10° S
Cosmos 1340 Rocket 2.7 22:13:09 10° S 22:17:16 83° E 22:19:34 25° N
Centaur Rocket 4.1 22:15:16 10° NW 22:16:30 19° NW 22:16:30 19° NW
CSL-04 Debris 4.1 22:18:48 10° SSE 22:24:21 89° ENE 22:29:51 10° NNW
Centaur AC-69 4.3 22:23:51 10° WNW 22:25:07 21° NNW 22:25:07 21° NNW
Cosmos 1709 Rocket 4.2 22:23:47 10° NNW 22:29:49 67° W 22:35:58 10° S
Delta 168 3.4 22:26:18 10° W 22:29:45 52° SSW 22:29:45 52° SSW
Cosmos 1302 Rocket 3.8 22:25:53 10° N 22:31:10 83° E 22:32:24 54° SSE
CZ-4 R/B 3.4 22:29:19 10° SSW 22:32:46 28° WSW 22:36:08 10° NW
USA 215 3.2 22:29:03 26° SSE 22:33:02 82° SW 22:39:34 10° NW
Cosmos 1939 Rocket 4.4 22:30:44 10° S 22:34:29 35° WSW 22:38:08 10° NW
YAOGAN 1 4.0 22:33:52 10° S 22:37:54 37° WSW 22:41:52 10° NW
GPS 2-17 Rocket1 4.2 22:34:18 10° NW 22:37:45 35° NNW 22:37:45 35° NNW
Cosmos 2297 3.8 22:34:45 10° NNW 22:40:28 77° WSW 22:42:49 37° S
COSMOS 2406 3.6 22:37:22 10° S 22:41:32 48° S 22:41:32 48° S
CSL-04 Rocket 4.4 22:43:31 10° S 22:48:46 50° WSW 22:53:54 10° NNW
SWIFT 4.4 22:47:18 10° WNW 22:49:47 23° NW 22:49:47 23° NW
Centaur D AC-29 2.8 23:12:58 10° WNW 23:27:21 59° WSW 23:27:21 59° WSW
